Home > Weather > Billings > Past weeks

Flag for USA Weather for the Past 2 Weeks in Billings, Montana, USA

Now
42 °F

Clear.


Feels Like: 38 °F
Forecast: 37 / 70 °F
Wind: 7 mph from South

Location: Billings Logan International Airport

Current Time: May 2, 2016 at 3:29:03 AM

Latest Report: May 2, 2016 at 1:53 AM


Visibility: 10 mi

Pressure: 30.20 "Hg (26.89 "Hg at 946m altitude)

Humidity: 71%

Dew Point: 33 °F

Location of BillingsLocation

Historic Weather in Billings — Graph

°F

Billings Temperature Yesterday

Maximum temperature yesterday: 60 °F (at 4:53 PM)
Minimum temperature yesterday: 39 °F (at 1:53 AM)
Average temperature yesterday: 50 °F

High & Low Weather Summary for the Past Weeks

 TemperatureHumidityPressure
High82 °F (Apr 22, 1:53 PM)100% (Apr 20, 3:53 AM)30.54 "Hg (Apr 20, 3:53 AM)
Low30 °F (Apr 17, 5:53 AM)13% (Apr 22, 2:53 PM)29.51 "Hg (Apr 23, 1:53 AM)
Average47 °F71%30.04 "Hg
* Reported Apr 17 1:53 AM — May 2 1:53 AM, Billings, Weather by CustomWeather, © 2016

Note: Actual official high and low records may vary slightly from our data, if they occured in-between our weather recording intervals... More about our weather records

Advertising

Billings Weather History for the Previous 24 Hours

Scroll right to see more
 ConditionsComfort  
Time TempWeatherWind HumidityBarometerVisibility
1:53 AM
Mon, May 2
42 °FClear.7 mph71%30.20 "Hg10 mi
12:53 AM48 °FClear.6 mph52%30.20 "Hg10 mi
11:53 PM
Sun, May 1
48 °FClear.7 mph54%30.19 "Hg10 mi
10:53 PM52 °FClear.5 mph43%30.20 "Hg10 mi
9:53 PM54 °FPassing clouds.5 mph40%30.21 "Hg10 mi
8:53 PM54 °FPassing clouds.3 mph41%30.21 "Hg10 mi
7:53 PM56 °FScattered clouds.8 mph39%30.21 "Hg10 mi
6:53 PM59 °FScattered clouds.13 mph33%30.21 "Hg10 mi
5:53 PM59 °FScattered clouds.7 mph31%30.21 "Hg10 mi
4:53 PM60 °FScattered clouds.9 mph32%30.22 "Hg10 mi
3:53 PM59 °FScattered clouds.6 mph31%30.24 "Hg10 mi
2:53 PM58 °FPartly sunny.7 mph32%30.26 "Hg10 mi
1:53 PM58 °FPartly sunny.12 mph32%30.27 "Hg10 mi
12:53 PM56 °FPartly sunny.6 mph36%30.30 "Hg10 mi
11:53 AM56 °FScattered clouds.6 mph36%30.32 "Hg10 mi
10:53 AM54 °FPassing clouds.3 mph43%30.34 "Hg10 mi
9:53 AM50 °FPassing clouds.6 mph52%30.35 "Hg10 mi
8:53 AM47 °FPassing clouds.3 mph69%30.37 "Hg10 mi
7:53 AM42 °FScattered clouds.8 mph76%30.37 "Hg10 mi
6:53 AM40 °FPassing clouds.7 mph83%30.36 "Hg10 mi
5:53 AM40 °FPassing clouds.5 mph83%30.35 "Hg10 mi
4:53 AM41 °FOvercast.3 mph74%30.34 "Hg10 mi
3:53 AM40 °FPassing clouds.No wind80%30.34 "Hg10 mi
Weather by CustomWeather, © 2016

See weather overviewHow to use our weather pages